GW1296 Weather Reports


Display with metric or nautical units.
time (UTC)temp
F
wind
direction
speed
MPH
gust
MPH
rain 1hr
in
rain 24hr
in
rain mn
in
humidity
%
barometer
mb
20260508090045 56 148 1.0 5.0 0.00 0.00 0.00 77 1015.8
20260508090032 56 118 1.0 5.0 0.00 0.00 0.00 77 1016.8
20260508084539 55 111 2.0 9.0 0.00 0.00 0.00 76 1015.8
20260508084531 55 113 2.0 9.0 0.00 0.00 0.00 77 1016.8
20260508083039 56 9 1.0 6.0 0.00 0.00 0.00 76 1015.7
20260508083031 56 5 1.0 6.0 0.00 0.00 0.00 77 1016.8
20260508081539 55 0 2.0 6.0 0.00 0.00 0.00 76 1015.6
20260508081528 55 113 2.0 5.0 0.00 0.00 0.00 76 1016.7
20260508080034 55 355 1.0 6.0 0.00 0.00 0.00 76 1015.5
20260508080027 55 19 1.0 6.0 0.00 0.00 0.00 76 1016.7
20260508074539 55 0 0.0 4.0 0.00 0.00 0.00 77 1015.5
20260508074521 55 61 0.0 4.0 0.00 0.00 0.00 78 1016.6
20260508073040 54 0 1.0 5.0 0.00 0.00 0.00 76 1015.3
20260508073020 54 45 1.0 5.0 0.00 0.00 0.00 77 1016.3
20260508071537 54 0 0.0 3.0 0.00 0.00 0.00 77 1015.2
20260508071518 54 138 0.0 3.0 0.00 0.00 0.00 77 1016.3
20260508070045 54 0 0.0 2.0 0.00 0.00 0.00 79 1015.1
20260508070021 54 143 0.0 1.0 0.00 0.00 0.00 79 1016.2
20260508064558 53 144 0.0 2.0 0.00 0.00 0.00 79 1015.0
20260508064511 53 146 0.0 3.0 0.00 0.00 0.00 80 1016.1
20260508063039 52 173 0.0 0.0 0.00 0.00 0.00 83 1014.8
20260508063009 52 218 0.0 0.0 0.00 0.00 0.00 84 1015.8
20260508061535 50 0 0.0 0.0 0.00 0.00 0.00 87 1014.7
20260508061508 50 225 0.0 0.0 0.00 0.00 0.00 87 1015.7
20260508060039 49 0 0.0 0.0 0.00 0.00 0.00 88 1014.4
20260508060005 49 225 0.0 0.0 0.00 0.00 0.00 89 1015.6
20260508054604 47 0 0.0 0.0 0.00 0.00 0.00 90 1014.4
20260508054505 47 239 0.0 0.0 0.00 0.00 0.00 90 1015.4
20260508053107 46 239 0.0 0.0 0.00 0.00 0.00 89 1015.4
20260508053040 46 0 0.0 0.0 0.00 0.00 0.00 88 1014.3
20260508051558 46 239 0.0 0.0 0.00 0.00 0.00 88 1015.5
20260508051541 46 0 0.0 0.0 0.00 0.00 0.00 88 1014.3
20260508050059 46 239 0.0 0.0 0.00 0.00 0.00 88 1015.4
20260508050041 46 0 0.0 0.0 0.00 0.00 0.00 88 1014.3
20260508044552 47 239 0.0 0.0 0.00 0.00 0.00 88 1015.5
20260508044539 47 0 0.0 0.0 0.00 0.00 0.00 87 1014.2
20260508043100 47 248 0.0 0.0 0.00 0.00 0.00 88 1015.3
20260508043048 47 0 0.0 0.0 0.00 0.00 0.00 88 1014.1
20260508041549 46 248 0.0 0.0 0.00 0.00 0.00 89 1015.1
20260508041539 46 0 0.0 0.0 0.00 0.00 0.00 88 1014.0
20260508040048 46 0 0.0 0.0 0.00 0.00 0.00 87 1014.0
20260508034546 46 248 0.0 0.0 0.00 0.00 0.00 87 1015.2
20260508034540 46 0 0.0 0.0 0.00 0.00 0.00 86 1013.9
20260508033045 47 248 0.0 0.0 0.00 0.00 0.00 87 1015.1
20260508033035 47 0 0.0 0.0 0.00 0.00 0.00 86 1013.9
20260508031551 47 248 0.0 0.0 0.00 0.00 0.00 86 1015.2
20260508030050 47 248 0.0 0.0 0.00 0.00 0.00 85 1015.2
20260508030032 47 0 0.0 0.0 0.00 0.00 0.00 85 1014.0
20260508024540 48 248 0.0 0.0 0.00 0.00 0.00 85 1015.2
20260508024531 48 0 0.0 0.0 0.00 0.00 0.00 84 1014.0
20260508023042 48 248 0.0 0.0 0.00 0.00 0.00 84 1015.1
20260508023039 48 0 0.0 0.0 0.00 0.00 0.00 84 1013.9
20260508021540 48 0 0.0 1.0 0.00 0.00 0.00 83 1013.8
20260508021538 48 248 0.0 0.0 0.00 0.00 0.00 84 1015.0
20260508020034 49 0 0.0 0.0 0.00 0.00 0.00 81 1013.7
20260508014533 49 0 0.0 0.0 0.00 0.00 0.00 79 1013.7
20260508014530 49 248 0.0 0.0 0.00 0.00 0.00 79 1014.7
20260508013033 50 0 0.0 0.0 0.00 0.00 0.00 78 1013.6
20260508013027 50 248 0.0 0.0 0.00 0.00 0.00 79 1014.6
20260508011544 51 0 0.0 3.0 0.00 0.00 0.00 78 1013.7
20260508011526 51 248 0.0 3.0 0.00 0.00 0.00 79 1014.6
20260508010039 52 0 0.0 2.0 0.00 0.00 0.00 78 1013.8
20260508010026 52 259 0.0 2.0 0.00 0.00 0.00 78 1014.8
20260508004538 52 259 0.0 2.0 0.00 0.00 0.00 77 1013.7
20260508004521 52 259 0.0 1.0 0.00 0.00 0.00 78 1014.7
20260508003038 52 0 1.0 8.0 0.00 0.00 0.00 77 1013.6
20260508003020 52 234 1.0 7.0 0.00 0.00 0.00 78 1014.7
20260508001539 52 242 3.0 7.0 0.00 0.00 0.00 77 1013.7
20260508001518 52 245 3.0 7.0 0.00 0.00 0.00 77 1014.8
20260508000044 53 252 2.0 7.0 0.00 0.00 0.00 76 1013.8
20260508000016 53 252 2.0 6.0 0.00 0.00 0.00 77 1014.8
20260507234542 53 254 1.0 4.0 0.00 0.00 0.00 76 1013.8
20260507234514 53 254 1.0 3.0 0.00 0.00 0.00 76 1014.8
20260507233040 53 0 0.0 3.0 0.00 0.00 0.00 75 1013.6
20260507233014 53 252 0.0 3.0 0.00 0.00 0.00 76 1014.7
20260507231537 53 0 0.0 4.0 0.00 0.00 0.00 75 1013.6
20260507231517 53 233 0.0 4.0 0.00 0.00 0.00 75 1014.7
20260507230039 53 0 0.0 7.0 0.00 0.00 0.00 74 1013.6
20260507230010 53 189 0.0 7.0 0.00 0.00 0.00 74 1014.7
20260507224539 53 123 1.0 8.0 0.00 0.00 0.00 74 1013.4
20260507224508 53 138 1.0 8.0 0.00 0.00 0.00 74 1014.6
20260507223036 53 260 1.0 10.0 0.00 0.00 0.00 73 1013.2
20260507223008 53 238 1.0 10.0 0.00 0.00 0.00 74 1014.4
20260507221534 53 298 1.0 4.0 0.00 0.00 0.00 74 1013.2
20260507221508 53 290 0.0 5.0 0.00 0.00 0.00 74 1014.4
20260507220033 53 0 0.0 5.0 0.00 0.00 0.00 74 1013.1
20260507220006 53 284 0.0 5.0 0.00 0.00 0.00 74 1014.3
20260507214545 54 0 0.0 4.0 0.00 0.00 0.00 74 1013.1
20260507214506 54 289 0.0 4.0 0.00 0.00 0.00 74 1014.3
20260507213042 53 200 1.0 7.0 0.00 0.00 0.00 74 1013.0
20260507213009 54 176 1.0 7.0 0.00 0.00 0.00 74 1014.0
20260507211546 54 286 3.0 7.0 0.00 0.00 0.00 74 1012.9
20260507211505 54 180 3.0 6.0 0.00 0.00 0.00 74 1014.1
20260507210034 54 225 0.0 6.0 0.00 0.00 0.00 74 1012.7
20260507210007 54 225 0.0 4.0 0.00 0.00 0.00 74 1013.9
20260507204541 54 254 1.0 7.0 0.00 0.00 0.00 73 1012.6
20260507204508 54 254 1.0 7.0 0.00 0.00 0.00 73 1013.8
20260507203039 54 0 1.0 8.0 0.00 0.00 0.00 72 1012.4
20260507203003 54 247 1.0 8.0 0.00 0.00 0.00 72 1013.6
20260507201606 54 180 3.0 9.0 0.00 0.00 0.00 72 1013.5
20260507201539 54 273 3.0 8.0 0.00 0.00 0.00 72 1012.2
20260507200034 55 259 3.0 12.0 0.00 0.00 0.00 71 1012.2
20260507200002 55 263 3.0 8.0 0.00 0.00 0.00 72 1013.4
20260507194540 55 237 3.0 9.0 0.00 0.00 0.00 71 1012.1
20260507194503 55 265 4.0 9.0 0.00 0.00 0.00 71 1013.3
20260507193048 56 248 4.0 12.0 0.00 0.00 0.00 70 1011.9
20260507193001 56 248 4.0 12.0 0.00 0.00 0.00 70 1013.2
20260507191617 56 217 2.0 10.0 0.00 0.00 0.00 69 1013.1
20260507191540 56 244 3.0 11.0 0.00 0.00 0.00 68 1011.8
20260507190100 57 252 3.0 11.0 0.00 0.00 0.00 68 1013.0
20260507190040 57 251 3.0 11.0 0.00 0.00 0.00 68 1011.6
20260507184608 57 259 2.0 8.0 0.00 0.00 0.00 67 1012.8
20260507184535 57 259 3.0 8.0 0.00 0.00 0.00 66 1011.6
20260507183104 58 239 2.0 7.0 0.00 0.00 0.00 65 1012.8
20260507183039 58 245 2.0 7.0 0.00 0.00 0.00 64 1011.5
20260507181557 57 198 2.0 7.0 0.00 0.00 0.00 64 1012.8
20260507181540 57 192 3.0 8.0 0.00 0.00 0.00 63 1011.5
20260507180100 57 265 1.0 8.0 0.00 0.00 0.00 66 1012.6
20260507180040 57 265 1.0 8.0 0.00 0.00 0.00 66 1011.4
20260507174556 57 119 1.0 4.0 0.00 0.00 0.00 73 1012.6
20260507173057 58 119 0.0 3.0 0.00 0.00 0.00 74 1012.6
20260507173036 58 0 0.0 3.0 0.00 0.00 0.00 73 1011.5
20260507171555 57 120 0.0 4.0 0.00 0.00 0.00 76 1012.6
20260507171545 57 0 0.0 5.0 0.00 0.00 0.00 75 1011.4
20260507170056 57 194 1.0 5.0 0.00 0.00 0.00 75 1012.7
20260507170039 57 128 1.0 6.0 0.00 0.00 0.00 74 1011.4
20260507164617 57 142 1.0 3.0 0.00 0.00 0.00 74 1012.6
20260507164539 57 137 0.0 5.0 0.00 0.00 0.00 74 1011.5
20260507163054 58 126 1.0 5.0 0.00 0.00 0.00 73 1012.7
20260507163039 58 130 1.0 7.0 0.00 0.00 0.00 72 1011.4
20260507161556 58 140 1.0 5.0 0.00 0.00 0.00 70 1012.6
20260507161540 58 148 2.0 6.0 0.00 0.00 0.00 70 1011.4
20260507160052 59 140 2.0 9.0 0.00 0.00 0.00 68 1012.5
20260507160048 60 156 2.0 9.0 0.00 0.00 0.00 67 1011.3
20260507154552 60 138 2.0 6.0 0.00 0.00 0.00 59 1012.6
20260507154531 60 161 1.0 6.0 0.00 0.00 0.00 57 1011.3
20260507153051 60 216 1.0 9.0 0.00 0.00 0.00 57 1012.5
20260507153039 60 205 1.0 9.0 0.00 0.00 0.00 57 1011.4
20260507151550 60 181 0.0 6.0 0.00 0.00 0.00 58 1012.6
20260507151539 60 0 1.0 6.0 0.00 0.00 0.00 56 1011.4
20260507150049 60 234 2.0 5.0 0.00 0.00 0.00 55 1012.7
20260507150038 60 186 1.0 8.0 0.00 0.00 0.00 55 1011.5
20260507144547 60 121 2.0 8.0 0.00 0.00 0.00 56 1012.8
20260507144540 60 116 2.0 8.0 0.00 0.00 0.00 56 1011.5
20260507143101 60 240 2.0 9.0 0.00 0.00 0.00 57 1012.9
20260507143037 60 165 3.0 9.0 0.00 0.00 0.00 56 1011.7
20260507141604 59 158 1.0 6.0 0.00 0.00 0.00 61 1012.9
20260507141537 59 159 2.0 7.0 0.00 0.00 0.00 60 1011.7
20260507140045 58 114 2.0 9.0 0.00 0.00 0.00 70 1013.0
20260507134544 59 117 2.0 9.0 0.00 0.00 0.00 69 1013.1
20260507134533 59 43 2.0 9.0 0.00 0.00 0.00 68 1011.7
20260507133044 60 174 1.0 4.0 0.00 0.00 0.00 62 1013.1
20260507133037 60 155 1.0 13.0 0.00 0.00 0.00 59 1011.8
20260507131607 61 0 0.0 7.0 0.00 0.00 0.00 51 1011.7
20260507131552 61 170 0.0 5.0 0.00 0.00 0.00 52 1013.0
20260507130042 60 224 1.0 6.0 0.00 0.00 0.00 53 1013.1
20260507130039 60 300 2.0 7.0 0.00 0.00 0.00 52 1011.7
20260507124540 60 273 2.0 8.0 0.00 0.00 0.00 53 1011.8
20260507124536 60 215 2.0 8.0 0.00 0.00 0.00 54 1013.3
20260507123041 60 0 1.0 8.0 0.00 0.00 0.00 54 1011.9
20260507123033 60 199 0.0 8.0 0.00 0.00 0.00 55 1013.3
20260507121541 59 213 2.0 5.0 0.00 0.00 0.00 54 1012.1
20260507121530 59 209 2.0 5.0 0.00 0.00 0.00 54 1013.3
20260507120041 59 0 0.0 2.0 0.00 0.00 0.00 54 1012.2
20260507120028 59 194 0.0 2.0 0.00 0.00 0.00 55 1013.4
20260507114534 59 280 0.0 3.0 0.00 0.00 0.00 56 1012.2
20260507114529 59 280 0.0 3.0 0.00 0.00 0.00 56 1013.4
20260507113100 57 0 0.0 2.0 0.00 0.00 0.00 57 1012.3
20260507113023 57 324 0.0 2.0 0.00 0.00 0.00 57 1013.5
20260507111539 56 0 0.0 3.0 0.00 0.00 0.00 59 1012.3
20260507111523 56 349 0.0 2.0 0.00 0.00 0.00 60 1013.6
20260507110041 56 323 0.0 3.0 0.00 0.00 0.00 61 1012.4
20260507110023 56 323 0.0 3.0 0.00 0.00 0.00 61 1013.4
20260507104546 56 281 1.0 4.0 0.00 0.00 0.00 60 1012.4
20260507104525 56 281 0.0 4.0 0.00 0.00 0.00 60 1013.4
20260507103036 56 0 1.0 5.0 0.00 0.00 0.00 59 1012.5
20260507103021 56 288 1.0 5.0 0.00 0.00 0.00 59 1013.6
20260507101536 58 344 0.0 6.0 0.00 0.00 0.00 59 1012.6
20260507101521 58 323 0.0 6.0 0.00 0.00 0.00 60 1013.7
20260507100043 57 0 1.0 4.0 0.00 0.00 0.00 60 1012.7
20260507100018 57 56 1.0 4.0 0.00 0.00 0.00 61 1013.6
20260507094537 56 0 0.0 2.0 0.00 0.00 0.00 60 1012.7
20260507094516 56 323 0.0 1.0 0.00 0.00 0.00 60 1013.8
20260507093041 56 0 0.0 3.0 0.00 0.00 0.00 61 1012.7
20260507093017 56 340 0.0 1.0 0.00 0.00 0.00 61 1014.0
20260507091540 56 0 0.0 4.0 0.00 0.00 0.00 62 1012.8
20260507091521 56 311 0.0 3.0 0.00 0.00 0.00 63 1013.9